KZR111 UAAA-UBBB

Flight info

Callsign KZR111
Flight time 3h 8m
Altitude 36000
Route EKLAT Z370 TOMGO M610 ARBOL Z621 TRK N147 OTBOR/N0455F360 A480 TIMGA B476 NEBIT B738 KRS A480 DUKAN L850 ABROL
Aircraft A21N/M-SDE3FGHIRWY/LB1

Departure

Time 2026-04-28 12:39
Airport Almaty International Airport (UAAA)

Arrival

Time 2026-04-28 15:47
Airport Heydar Aliyev International Airport (UBBB)
Time Latitude Longitude Altitude Speed Heading
2026-04-28 12:11 43.34967 77.01298 2227 ft 0 kts 245°
2026-04-28 12:29 43.34967 77.01299 2226 ft 0 kts 245°
2026-04-28 12:29 43.34974 77.01316 2226 ft 2 kts 245°
2026-04-28 12:29 43.34980 77.01334 2226 ft 2 kts 245°
2026-04-28 12:30 43.34986 77.01354 2226 ft 2 kts 245°
2026-04-28 12:30 43.34992 77.01372 2226 ft 2 kts 245°
2026-04-28 12:30 43.34998 77.01391 2226 ft 2 kts 238°
2026-04-28 12:30 43.35010 77.01405 2226 ft 2 kts 202°
2026-04-28 12:31 43.35025 77.01408 2225 ft 2 kts 173°
2026-04-28 12:31 43.35039 77.01402 2225 ft 2 kts 149°
2026-04-28 12:31 43.35052 77.01392 2225 ft 2 kts 157°
2026-04-28 12:31 43.35063 77.01386 2224 ft 0 kts 155°
2026-04-28 12:32 43.35064 77.01385 2224 ft 0 kts 155°
2026-04-28 12:34 43.35025 77.01408 2225 ft 12 kts 156°
2026-04-28 12:34 43.34936 77.01465 2229 ft 13 kts 155°
2026-04-28 12:35 43.34848 77.01508 2231 ft 13 kts 182°
2026-04-28 12:35 43.34753 77.01469 2232 ft 14 kts 199°
2026-04-28 12:35 43.34665 77.01449 2234 ft 11 kts 161°
2026-04-28 12:35 43.34586 77.01468 2237 ft 11 kts 168°
2026-04-28 12:36 43.34515 77.01508 2239 ft 11 kts 155°
2026-04-28 12:36 43.34440 77.01555 2241 ft 12 kts 155°
2026-04-28 12:36 43.34362 77.01605 2241 ft 12 kts 155°
2026-04-28 12:36 43.34282 77.01655 2242 ft 12 kts 155°
2026-04-28 12:37 43.34209 77.01702 2244 ft 11 kts 155°
2026-04-28 12:37 43.34146 77.01751 2245 ft 5 kts 143°
2026-04-28 12:37 43.34144 77.01788 2245 ft 5 kts 63°
2026-04-28 12:37 43.34154 77.01811 2245 ft 0 kts 56°
2026-04-28 12:38 43.34155 77.01811 2245 ft 0 kts 56°
2026-04-28 12:38 43.34213 77.01929 2245 ft 45 kts 56°
2026-04-28 12:38 43.34530 77.02571 2241 ft 115 kts 56°
2026-04-28 12:39 43.35099 77.03720 2247 ft 171 kts 54°
2026-04-28 12:39 43.35785 77.05129 2708 ft 181 kts 56°
2026-04-28 12:39 43.36493 77.06577 3378 ft 186 kts 54°
2026-04-28 12:39 43.37217 77.07993 4090 ft 187 kts 53°
2026-04-28 12:40 43.37995 77.09480 4483 ft 196 kts 53°
2026-04-28 12:40 43.38829 77.11049 4767 ft 211 kts 54°
2026-04-28 12:40 43.39723 77.12739 5043 ft 227 kts 54°
2026-04-28 12:40 43.40689 77.14582 5274 ft 247 kts 54°
2026-04-28 12:41 43.41865 77.16333 5697 ft 256 kts 33°
2026-04-28 12:41 43.43544 77.17197 6091 ft 269 kts
2026-04-28 12:41 43.45401 77.16800 6654 ft 277 kts 337°
2026-04-28 12:41 43.47101 77.15538 7358 ft 279 kts 332°
2026-04-28 12:42 43.48798 77.14251 8041 ft 281 kts 332°
2026-04-28 12:42 43.50445 77.12852 8689 ft 285 kts 319°
2026-04-28 12:42 43.51528 77.10574 9327 ft 291 kts 287°
2026-04-28 12:42 43.51596 77.07822 10010 ft 294 kts 261°
2026-04-28 12:43 43.51200 77.05038 10546 ft 301 kts 261°
2026-04-28 12:43 43.50860 77.02116 10827 ft 317 kts 263°
2026-04-28 12:43 43.50554 76.99047 11153 ft 331 kts 264°
2026-04-28 12:43 43.50267 76.95918 11759 ft 335 kts 264°
2026-04-28 12:44 43.49985 76.92743 12432 ft 336 kts 264°
2026-04-28 12:44 43.49712 76.89573 13078 ft 337 kts 264°
2026-04-28 12:44 43.49437 76.86371 13696 ft 339 kts 264°
2026-04-28 12:44 43.49160 76.83150 14287 ft 340 kts 264°
2026-04-28 12:45 43.48884 76.79912 14885 ft 342 kts 265°
2026-04-28 12:45 43.48606 76.76654 15472 ft 344 kts 264°
2026-04-28 12:45 43.48327 76.73398 16063 ft 345 kts 265°
2026-04-28 12:45 43.48047 76.70127 16641 ft 347 kts 265°
2026-04-28 12:46 43.47765 76.66858 17184 ft 348 kts 265°
2026-04-28 12:46 43.47480 76.63558 17715 ft 350 kts 265°
2026-04-28 12:46 43.47192 76.60229 18257 ft 351 kts 265°
2026-04-28 12:46 43.46902 76.56889 18774 ft 353 kts 265°
2026-04-28 12:47 43.46611 76.53539 19256 ft 355 kts 265°
2026-04-28 12:47 43.46318 76.50196 19746 ft 357 kts 265°
2026-04-28 12:47 43.46017 76.46768 20179 ft 360 kts 265°
2026-04-28 12:47 43.45718 76.43365 20639 ft 361 kts 265°
2026-04-28 12:48 43.45416 76.39946 21077 ft 363 kts 265°
2026-04-28 12:48 43.45112 76.36519 21514 ft 365 kts 265°
2026-04-28 12:48 43.44798 76.33006 21973 ft 367 kts 265°
2026-04-28 12:48 43.44488 76.29531 22391 ft 369 kts 265°
2026-04-28 12:49 43.44172 76.26022 22803 ft 372 kts 265°
2026-04-28 12:49 43.43857 76.22496 23198 ft 374 kts 265°
2026-04-28 12:49 43.43535 76.18949 23594 ft 376 kts 265°
2026-04-28 12:49 43.43218 76.15403 23985 ft 378 kts 265°
2026-04-28 12:50 43.42893 76.11814 24413 ft 379 kts 265°
2026-04-28 12:50 43.42567 76.08223 24821 ft 379 kts 265°
2026-04-28 12:50 43.42237 76.04604 25168 ft 382 kts 265°
2026-04-28 12:50 43.41908 76.01025 25505 ft 384 kts 265°
2026-04-28 12:51 43.41570 75.97361 25896 ft 384 kts 265°
2026-04-28 12:51 43.41233 75.93726 26236 ft 386 kts 264°
2026-04-28 12:51 43.40895 75.90074 26545 ft 388 kts 264°
2026-04-28 12:51 43.40552 75.86402 26854 ft 389 kts 264°
2026-04-28 12:52 43.40208 75.82722 27162 ft 391 kts 264°
2026-04-28 12:52 43.39861 75.79027 27470 ft 392 kts 264°
2026-04-28 12:52 43.39510 75.75314 27766 ft 394 kts 264°
2026-04-28 12:52 43.39156 75.71573 28052 ft 396 kts 264°
2026-04-28 12:53 43.38799 75.67818 28351 ft 397 kts 264°
2026-04-28 12:53 43.38443 75.64094 28644 ft 398 kts 264°
2026-04-28 12:53 43.38099 75.60297 28946 ft 399 kts 266°
2026-04-28 12:53 43.37983 75.56502 29215 ft 400 kts 271°
2026-04-28 12:54 43.38124 75.52702 29458 ft 402 kts 274°
2026-04-28 12:54 43.38320 75.48872 29726 ft 403 kts 274°
2026-04-28 12:54 43.38510 75.45031 29981 ft 405 kts 274°
2026-04-28 12:54 43.38698 75.41178 30250 ft 406 kts 274°
2026-04-28 12:55 43.38883 75.37327 30521 ft 406 kts 274°
2026-04-28 12:55 43.39068 75.33431 30801 ft 406 kts 274°
2026-04-28 12:55 43.39250 75.29578 31058 ft 407 kts 273°
2026-04-28 12:55 43.39431 75.25695 31326 ft 408 kts 273°
2026-04-28 12:56 43.39612 75.21814 31588 ft 408 kts 273°
2026-04-28 12:56 43.39793 75.17934 31907 ft 407 kts 273°
2026-04-28 12:56 43.39974 75.14088 32279 ft 404 kts 272°
2026-04-28 12:56 43.40151 75.10247 32634 ft 402 kts 272°
2026-04-28 12:57 43.40323 75.06465 32993 ft 400 kts 272°
2026-04-28 12:57 43.40492 75.02699 33341 ft 397 kts 272°
2026-04-28 12:57 43.40660 74.98900 33687 ft 395 kts 272°
2026-04-28 12:57 43.40825 74.95149 34003 ft 393 kts 272°
2026-04-28 12:58 43.40987 74.91425 34316 ft 391 kts 272°
2026-04-28 12:58 43.41146 74.87715 34529 ft 391 kts 272°
2026-04-28 12:58 43.41304 74.83993 34682 ft 393 kts 272°
2026-04-28 12:58 43.41465 74.80268 34812 ft 394 kts 272°
2026-04-28 12:59 43.41627 74.76504 35021 ft 394 kts 272°
2026-04-28 12:59 43.41786 74.72746 35214 ft 394 kts 272°
2026-04-28 12:59 43.41945 74.69025 35380 ft 395 kts 272°
2026-04-28 12:59 43.42102 74.65248 35543 ft 396 kts 272°
2026-04-28 13:00 43.42259 74.61487 35672 ft 397 kts 272°
2026-04-28 13:00 43.42416 74.57680 35809 ft 398 kts 272°
2026-04-28 13:00 43.42569 74.53931 35966 ft 398 kts 272°
2026-04-28 13:01 43.42874 74.46284 36065 ft 401 kts 272°
2026-04-28 13:01 43.43176 74.38640 36066 ft 402 kts 272°
2026-04-28 13:02 43.43462 74.30950 36066 ft 403 kts 270°
2026-04-28 13:02 43.43322 74.23264 36055 ft 403 kts 267°
2026-04-28 13:03 43.42847 74.15606 36048 ft 403 kts 263°
2026-04-28 13:03 43.42153 74.07936 36041 ft 404 kts 263°
2026-04-28 13:04 43.41517 74.00326 36034 ft 403 kts 263°
2026-04-28 13:04 43.40902 73.92656 36025 ft 403 kts 264°
2026-04-28 13:05 43.40296 73.85045 36017 ft 404 kts 263°
2026-04-28 13:05 43.39681 73.77395 36012 ft 403 kts 263°
2026-04-28 13:06 43.39066 73.69743 36015 ft 404 kts 264°
2026-04-28 13:06 43.38449 73.62091 36026 ft 404 kts 263°
2026-04-28 13:07 43.37822 73.54412 36022 ft 406 kts 263°
2026-04-28 13:07 43.37186 73.46710 36022 ft 407 kts 263°
2026-04-28 13:08 43.36549 73.39029 36028 ft 407 kts 263°
2026-04-28 13:08 43.35900 73.31320 36022 ft 407 kts 263°
2026-04-28 13:09 43.35245 73.23601 36033 ft 408 kts 263°
2026-04-28 13:09 43.34585 73.15864 36037 ft 408 kts 263°
2026-04-28 13:10 43.33922 73.08151 36034 ft 409 kts 263°
2026-04-28 13:10 43.33253 73.00436 36040 ft 409 kts 263°
2026-04-28 13:11 43.32578 72.92713 36035 ft 410 kts 263°
2026-04-28 13:11 43.31897 72.84976 36032 ft 410 kts 263°
2026-04-28 13:12 43.31208 72.77234 36035 ft 411 kts 263°
2026-04-28 13:12 43.30511 72.69444 36038 ft 411 kts 263°
2026-04-28 13:13 43.29812 72.61690 36037 ft 411 kts 263°
2026-04-28 13:13 43.29105 72.53915 36038 ft 413 kts 263°
2026-04-28 13:14 43.28390 72.46118 36035 ft 413 kts 263°
2026-04-28 13:14 43.27671 72.38327 36039 ft 413 kts 263°
2026-04-28 13:15 43.26944 72.30521 36035 ft 414 kts 262°
2026-04-28 13:15 43.26214 72.22716 36033 ft 414 kts 262°
2026-04-28 13:16 43.25475 72.14901 36032 ft 414 kts 262°
2026-04-28 13:16 43.24739 72.07107 36045 ft 415 kts 262°
2026-04-28 13:17 43.23983 71.99245 36026 ft 416 kts 262°
2026-04-28 13:17 43.23224 71.91406 36014 ft 416 kts 262°
2026-04-28 13:18 43.22464 71.83598 36010 ft 417 kts 262°
2026-04-28 13:18 43.21695 71.75755 36009 ft 418 kts 262°
2026-04-28 13:19 43.20918 71.67879 36005 ft 418 kts 262°
2026-04-28 13:19 43.20137 71.60030 36004 ft 418 kts 262°
2026-04-28 13:20 43.19348 71.52155 36001 ft 419 kts 262°
2026-04-28 13:20 43.18556 71.44291 35997 ft 419 kts 262°
2026-04-28 13:21 43.17756 71.36406 35990 ft 419 kts 262°
2026-04-28 13:21 43.16944 71.28474 35989 ft 420 kts 261°
2026-04-28 13:22 43.16127 71.20554 35987 ft 421 kts 261°
2026-04-28 13:22 43.15307 71.12643 35987 ft 421 kts 261°
2026-04-28 13:23 43.14481 71.04738 35987 ft 422 kts 261°
2026-04-28 13:23 43.13647 70.96829 35979 ft 421 kts 261°
2026-04-28 13:24 43.12811 70.88907 35981 ft 422 kts 261°
2026-04-28 13:24 43.11967 70.80950 35982 ft 423 kts 261°
2026-04-28 13:25 43.11117 70.73014 35979 ft 423 kts 261°
2026-04-28 13:25 43.10258 70.65054 35988 ft 423 kts 261°
2026-04-28 13:26 43.09399 70.57158 35998 ft 424 kts 261°
2026-04-28 13:26 43.08528 70.49199 36013 ft 426 kts 261°
2026-04-28 13:27 43.07646 70.41182 36022 ft 426 kts 261°
2026-04-28 13:27 43.06764 70.33221 36033 ft 426 kts 261°
2026-04-28 13:28 43.05863 70.25160 36042 ft 427 kts 261°
2026-04-28 13:28 43.04964 70.17167 36045 ft 427 kts 261°
2026-04-28 13:29 43.04060 70.09180 36046 ft 427 kts 261°
2026-04-28 13:29 43.03154 70.01214 36043 ft 428 kts 261°
2026-04-28 13:30 43.02231 69.93162 36035 ft 428 kts 261°
2026-04-28 13:30 43.01310 69.85191 36029 ft 428 kts 261°
2026-04-28 13:31 42.99916 69.73158 36017 ft 429 kts 261°
2026-04-28 13:31 42.98976 69.65119 36011 ft 429 kts 261°
2026-04-28 13:32 42.98031 69.57101 36001 ft 429 kts 261°
2026-04-28 13:32 42.97086 69.49133 35987 ft 429 kts 261°
2026-04-28 13:33 42.96129 69.41118 35974 ft 429 kts 261°
2026-04-28 13:33 42.95159 69.33056 35966 ft 429 kts 260°
2026-04-28 13:34 42.94195 69.25069 35959 ft 429 kts 260°
2026-04-28 13:34 42.93224 69.17050 35961 ft 429 kts 260°
2026-04-28 13:35 42.92245 69.09026 35961 ft 429 kts 260°
2026-04-28 13:35 42.91257 69.00993 35948 ft 430 kts 260°
2026-04-28 13:36 42.90264 68.92967 35946 ft 431 kts 260°
2026-04-28 13:36 42.89262 68.84924 35944 ft 430 kts 260°
2026-04-28 13:37 42.88259 68.76930 35939 ft 429 kts 260°
2026-04-28 13:37 42.87254 68.68965 35944 ft 429 kts 260°
2026-04-28 13:38 42.86243 68.60965 35938 ft 429 kts 260°
2026-04-28 13:38 42.85225 68.52980 35926 ft 429 kts 260°
2026-04-28 13:39 42.84203 68.45003 35926 ft 428 kts 261°
2026-04-28 13:39 42.83178 68.37028 35920 ft 428 kts 261°
2026-04-28 13:40 42.82144 68.29046 35920 ft 428 kts 260°
2026-04-28 13:40 42.81110 68.21104 35917 ft 428 kts 260°
2026-04-28 13:41 42.80067 68.13149 35916 ft 428 kts 260°
2026-04-28 13:41 42.79013 68.05163 35915 ft 428 kts 260°
2026-04-28 13:42 42.77960 67.97231 35916 ft 429 kts 260°
2026-04-28 13:42 42.76895 67.89251 35911 ft 429 kts 260°
2026-04-28 13:43 42.75835 67.81324 35917 ft 428 kts 260°
2026-04-28 13:43 42.74768 67.73395 35916 ft 428 kts 260°
2026-04-28 13:44 42.73688 67.65435 35919 ft 428 kts 260°
2026-04-28 13:44 42.72606 67.57509 35918 ft 427 kts 260°
2026-04-28 13:45 42.71526 67.49609 35920 ft 428 kts 260°
2026-04-28 13:45 42.70439 67.41706 35920 ft 428 kts 260°
2026-04-28 13:46 42.69342 67.33771 35924 ft 428 kts 259°
2026-04-28 13:46 42.68229 67.25778 35924 ft 428 kts 259°
2026-04-28 13:47 42.67126 67.17898 35933 ft 428 kts 259°
2026-04-28 13:47 42.66009 67.09955 35936 ft 427 kts 259°
2026-04-28 13:48 42.64892 67.02065 35937 ft 427 kts 259°
2026-04-28 13:48 42.63767 66.94171 35933 ft 427 kts 259°
2026-04-28 13:49 42.62645 66.86324 35930 ft 427 kts 259°
2026-04-28 13:49 42.61510 66.78404 35933 ft 428 kts 259°
2026-04-28 13:50 42.60372 66.70534 35927 ft 427 kts 259°
2026-04-28 13:50 42.59232 66.62651 35933 ft 427 kts 259°
2026-04-28 13:51 42.58081 66.54751 35938 ft 427 kts 259°
2026-04-28 13:51 42.56925 66.46864 35941 ft 427 kts 259°
2026-04-28 13:52 42.55773 66.39050 35936 ft 426 kts 259°
2026-04-28 13:52 42.54607 66.31183 35934 ft 426 kts 258°
2026-04-28 13:53 42.53436 66.23325 35933 ft 426 kts 258°
2026-04-28 13:53 42.52256 66.15432 35939 ft 427 kts 258°
2026-04-28 13:54 42.51079 66.07579 35948 ft 426 kts 258°
2026-04-28 13:54 42.49895 65.99740 35946 ft 426 kts 258°
2026-04-28 13:55 42.48703 65.91902 35949 ft 426 kts 258°
2026-04-28 13:55 42.47510 65.84088 35943 ft 426 kts 258°
2026-04-28 13:56 42.46309 65.76224 35955 ft 426 kts 258°
2026-04-28 13:56 42.45112 65.68424 35952 ft 426 kts 258°
2026-04-28 13:57 42.43902 65.60597 35951 ft 425 kts 258°
2026-04-28 13:57 42.42690 65.52799 35952 ft 425 kts 258°
2026-04-28 13:58 42.41466 65.44963 35951 ft 426 kts 258°
2026-04-28 13:58 42.40248 65.37202 35951 ft 425 kts 258°
2026-04-28 13:59 42.39008 65.29336 35958 ft 425 kts 258°
2026-04-28 13:59 42.37779 65.21577 35968 ft 425 kts 258°
2026-04-28 14:00 42.36534 65.13760 35963 ft 425 kts 258°
2026-04-28 14:00 42.35294 65.06002 35968 ft 425 kts 258°
2026-04-28 14:01 42.34045 64.98230 35981 ft 424 kts 258°
2026-04-28 14:01 42.32794 64.90473 35973 ft 424 kts 258°
2026-04-28 14:02 42.31536 64.82709 35981 ft 423 kts 258°
2026-04-28 14:02 42.30270 64.74945 35991 ft 423 kts 258°
2026-04-28 14:03 42.29007 64.67233 35991 ft 423 kts 258°
2026-04-28 14:03 42.27737 64.59501 35987 ft 422 kts 258°
2026-04-28 14:04 42.26464 64.51789 35989 ft 422 kts 258°
2026-04-28 14:04 42.25188 64.44102 35993 ft 421 kts 258°
2026-04-28 14:05 42.23906 64.36407 35996 ft 421 kts 258°
2026-04-28 14:05 42.22616 64.28708 35996 ft 421 kts 257°
2026-04-28 14:06 42.21325 64.21010 35994 ft 420 kts 257°
2026-04-28 14:06 42.20029 64.13334 35989 ft 420 kts 257°
2026-04-28 14:07 42.18734 64.05696 35981 ft 420 kts 257°
2026-04-28 14:07 42.17432 63.98034 35977 ft 420 kts 257°
2026-04-28 14:08 42.16131 63.90408 35976 ft 420 kts 257°
2026-04-28 14:08 42.14827 63.82805 35978 ft 419 kts 257°
2026-04-28 14:09 42.13515 63.75188 35976 ft 419 kts 257°
2026-04-28 14:09 42.12191 63.67543 35972 ft 418 kts 257°
2026-04-28 14:10 42.10879 63.59997 35970 ft 418 kts 257°
2026-04-28 14:10 42.09542 63.52347 35963 ft 418 kts 257°
2026-04-28 14:11 42.08214 63.44768 35959 ft 418 kts 258°
2026-04-28 14:11 42.06871 63.37141 35954 ft 426 kts 258°
2026-04-28 14:12 42.05490 63.29338 35948 ft 433 kts 257°
2026-04-28 14:12 42.04088 63.21439 35946 ft 435 kts 257°
2026-04-28 14:13 42.02677 63.13536 35946 ft 436 kts 257°
2026-04-28 14:13 42.01266 63.05667 35944 ft 436 kts 257°
2026-04-28 14:14 41.99846 62.97766 35944 ft 436 kts 257°
2026-04-28 14:14 41.98420 62.89882 35942 ft 434 kts 257°
2026-04-28 14:15 41.96997 62.82041 35938 ft 434 kts 257°
2026-04-28 14:15 41.95565 62.74166 35937 ft 433 kts 257°
2026-04-28 14:16 41.94137 62.66355 35941 ft 433 kts 257°
2026-04-28 14:16 41.92703 62.58534 35945 ft 432 kts 257°
2026-04-28 14:17 41.91275 62.50775 35951 ft 431 kts 257°
2026-04-28 14:17 41.89825 62.42948 35954 ft 432 kts 257°
2026-04-28 14:18 41.88366 62.35113 35957 ft 432 kts 257°
2026-04-28 14:18 41.86906 62.27308 35963 ft 432 kts 256°
2026-04-28 14:19 41.85447 62.19534 35966 ft 431 kts 256°
2026-04-28 14:19 41.83989 62.11789 35970 ft 431 kts 256°
2026-04-28 14:20 41.82525 62.04030 35971 ft 430 kts 256°
2026-04-28 14:20 41.81055 61.96276 35974 ft 430 kts 256°
2026-04-28 14:21 41.79576 61.88521 35980 ft 430 kts 256°
2026-04-28 14:21 41.78094 61.80785 35977 ft 430 kts 256°
2026-04-28 14:22 41.76611 61.73056 35977 ft 430 kts 256°
2026-04-28 14:22 41.75129 61.65340 35975 ft 429 kts 256°
2026-04-28 14:23 41.73632 61.57597 35977 ft 430 kts 256°
2026-04-28 14:23 41.72138 61.49910 35975 ft 429 kts 256°
2026-04-28 14:24 41.70632 61.42191 35975 ft 430 kts 256°
2026-04-28 14:24 41.69126 61.34499 35978 ft 429 kts 255°
2026-04-28 14:25 41.67607 61.26779 35972 ft 429 kts 255°
2026-04-28 14:25 41.66089 61.19080 35971 ft 429 kts 255°
2026-04-28 14:26 41.64561 61.11363 35975 ft 429 kts 255°
2026-04-28 14:26 41.63033 61.03680 35970 ft 429 kts 255°
2026-04-28 14:27 41.61506 60.96042 35970 ft 429 kts 255°
2026-04-28 14:27 41.59964 60.88343 35969 ft 430 kts 255°
2026-04-28 14:28 41.58412 60.80636 35965 ft 431 kts 255°
2026-04-28 14:28 41.56864 60.72983 35964 ft 430 kts 255°
2026-04-28 14:29 41.55316 60.65317 35965 ft 430 kts 256°
2026-04-28 14:29 41.53941 60.57577 35966 ft 430 kts 257°
2026-04-28 14:30 41.52586 60.49825 35964 ft 430 kts 256°
2026-04-28 14:30 41.51206 60.42045 35967 ft 431 kts 256°
2026-04-28 14:31 41.49817 60.34295 35961 ft 431 kts 256°
2026-04-28 14:31 41.48418 60.26534 35960 ft 431 kts 255°
2026-04-28 14:32 41.46939 60.18777 35960 ft 431 kts 253°
2026-04-28 14:32 41.45143 60.11203 35961 ft 431 kts 251°
2026-04-28 14:33 41.43319 60.03616 35962 ft 431 kts 251°
2026-04-28 14:33 41.41483 59.96006 35962 ft 432 kts 251°
2026-04-28 14:34 41.38725 59.84640 35958 ft 432 kts 251°
2026-04-28 14:35 41.36882 59.77075 35958 ft 433 kts 251°
2026-04-28 14:35 41.35131 59.69411 35959 ft 432 kts 255°
2026-04-28 14:36 41.33921 59.61606 35957 ft 433 kts 260°
2026-04-28 14:36 41.33147 59.53685 35957 ft 434 kts 262°
2026-04-28 14:37 41.32402 59.45760 35954 ft 434 kts 261°
2026-04-28 14:37 41.31647 59.37783 35955 ft 434 kts 262°
2026-04-28 14:38 41.30886 59.29822 35955 ft 435 kts 261°
2026-04-28 14:38 41.30122 59.21847 35983 ft 436 kts 261°
2026-04-28 14:38 41.29741 59.17903 36133 ft 435 kts 261°
2026-04-28 14:39 41.29355 59.13908 36330 ft 434 kts 261°
2026-04-28 14:39 41.28969 59.09946 36519 ft 433 kts 261°
2026-04-28 14:39 41.28583 59.05992 36675 ft 432 kts 261°
2026-04-28 14:39 41.28199 59.02072 36821 ft 432 kts 261°
2026-04-28 14:40 41.27810 58.98116 36964 ft 431 kts 260°
2026-04-28 14:40 41.27033 58.90267 37208 ft 431 kts 261°
2026-04-28 14:40 41.26642 58.86337 37327 ft 430 kts 261°
2026-04-28 14:41 41.26246 58.82377 37431 ft 430 kts 261°
2026-04-28 14:41 41.25857 58.78485 37540 ft 430 kts 261°
2026-04-28 14:41 41.25462 58.74535 37655 ft 429 kts 260°
2026-04-28 14:41 41.25067 58.70612 37786 ft 428 kts 260°
2026-04-28 14:42 41.24674 58.66728 37891 ft 428 kts 260°
2026-04-28 14:42 41.23882 58.58946 37966 ft 427 kts 260°
2026-04-28 14:43 41.23083 58.51165 37965 ft 426 kts 260°
2026-04-28 14:43 41.22285 58.43421 37971 ft 426 kts 260°
2026-04-28 14:44 41.21477 58.35643 37976 ft 427 kts 260°
2026-04-28 14:44 41.20655 58.27779 37974 ft 427 kts 259°
2026-04-28 14:45 41.19838 58.20021 37972 ft 427 kts 259°
2026-04-28 14:45 41.19010 58.12237 37968 ft 427 kts 259°
2026-04-28 14:46 41.18185 58.04482 37971 ft 427 kts 259°
2026-04-28 14:46 41.17355 57.96698 37964 ft 427 kts 259°
2026-04-28 14:47 41.16519 57.88929 37974 ft 427 kts 259°
2026-04-28 14:47 41.15675 57.81147 37964 ft 426 kts 259°
2026-04-28 14:48 41.14827 57.73389 37976 ft 426 kts 259°
2026-04-28 14:48 41.13979 57.65680 37971 ft 426 kts 259°
2026-04-28 14:49 41.13114 57.57876 37976 ft 426 kts 259°
2026-04-28 14:49 41.12253 57.50129 37976 ft 427 kts 259°
2026-04-28 14:50 41.11382 57.42355 37978 ft 427 kts 259°
2026-04-28 14:50 41.10506 57.34593 37978 ft 428 kts 259°
2026-04-28 14:51 41.09624 57.26830 37978 ft 428 kts 258°
2026-04-28 14:51 41.08731 57.19014 37980 ft 428 kts 258°
2026-04-28 14:52 41.07837 57.11238 37979 ft 429 kts 259°
2026-04-28 14:52 41.06934 57.03431 37983 ft 430 kts 258°
2026-04-28 14:53 41.06031 56.95668 37991 ft 429 kts 259°
2026-04-28 14:53 41.05120 56.87881 37997 ft 429 kts 258°
2026-04-28 14:54 41.04199 56.80074 38003 ft 429 kts 258°
2026-04-28 14:54 41.03276 56.72292 38000 ft 428 kts 258°
2026-04-28 14:55 41.02344 56.64506 37998 ft 429 kts 259°
2026-04-28 14:55 41.01411 56.56743 37993 ft 429 kts 258°
2026-04-28 14:56 41.00138 56.49083 37980 ft 428 kts 253°
2026-04-28 14:56 40.98317 56.41574 37979 ft 428 kts 250°
2026-04-28 14:57 40.96403 56.34161 37986 ft 429 kts 249°
2026-04-28 14:57 40.94468 56.26705 38001 ft 429 kts 249°
2026-04-28 14:58 40.92536 56.19283 37978 ft 429 kts 249°
2026-04-28 14:58 40.90592 56.11841 37986 ft 429 kts 249°
2026-04-28 14:59 40.88631 56.04357 37981 ft 428 kts 249°
2026-04-28 14:59 40.86684 55.96952 37985 ft 428 kts 249°
2026-04-28 15:00 40.84736 55.89559 37991 ft 428 kts 249°
2026-04-28 15:00 40.82780 55.82164 37988 ft 428 kts 249°
2026-04-28 15:01 40.80829 55.74811 38003 ft 428 kts 249°
2026-04-28 15:01 40.78856 55.67394 37998 ft 428 kts 249°
2026-04-28 15:02 40.76890 55.60026 37995 ft 429 kts 249°
2026-04-28 15:02 40.74908 55.52621 38008 ft 429 kts 249°
2026-04-28 15:03 40.72921 55.45212 38010 ft 428 kts 249°
2026-04-28 15:03 40.70940 55.37855 38033 ft 428 kts 249°
2026-04-28 15:04 40.68948 55.30477 38018 ft 427 kts 249°
2026-04-28 15:04 40.66954 55.23117 38014 ft 428 kts 249°
2026-04-28 15:05 40.64967 55.15801 38027 ft 427 kts 249°
2026-04-28 15:05 40.62969 55.08466 38030 ft 427 kts 249°
2026-04-28 15:06 40.60958 55.01105 38023 ft 427 kts 249°
2026-04-28 15:06 40.58950 54.93777 38033 ft 428 kts 249°
2026-04-28 15:07 40.56935 54.86446 38037 ft 428 kts 249°
2026-04-28 15:07 40.54923 54.79145 38026 ft 428 kts 249°
2026-04-28 15:08 40.52886 54.71776 38022 ft 428 kts 249°
2026-04-28 15:08 40.50859 54.64464 38017 ft 429 kts 249°
2026-04-28 15:09 40.48810 54.57091 38025 ft 429 kts 249°
2026-04-28 15:09 40.46764 54.49749 38012 ft 429 kts 249°
2026-04-28 15:10 40.44722 54.42450 38017 ft 429 kts 249°
2026-04-28 15:10 40.42657 54.35086 38014 ft 429 kts 249°
2026-04-28 15:11 40.40598 54.27764 38013 ft 428 kts 248°
2026-04-28 15:11 40.38538 54.20461 38007 ft 428 kts 248°
2026-04-28 15:12 40.36478 54.13175 38015 ft 427 kts 248°
2026-04-28 15:12 40.34411 54.05892 38015 ft 427 kts 248°
2026-04-28 15:13 40.32346 53.98633 38017 ft 428 kts 249°
2026-04-28 15:13 40.30268 53.91345 38026 ft 428 kts 249°
2026-04-28 15:14 40.28182 53.84042 38019 ft 429 kts 249°
2026-04-28 15:14 40.26096 53.76770 38035 ft 428 kts 248°
2026-04-28 15:15 40.24011 53.69519 38036 ft 428 kts 248°
2026-04-28 15:15 40.21908 53.62229 38040 ft 428 kts 248°
2026-04-28 15:16 40.19809 53.54976 38034 ft 428 kts 248°
2026-04-28 15:16 40.17705 53.47723 38053 ft 428 kts 248°
2026-04-28 15:17 40.15602 53.40492 38050 ft 427 kts 248°
2026-04-28 15:17 40.13494 53.33268 38041 ft 427 kts 248°
2026-04-28 15:18 40.11371 53.26014 38053 ft 427 kts 248°
2026-04-28 15:18 40.09259 53.18819 38064 ft 428 kts 248°
2026-04-28 15:19 40.07146 53.11570 38073 ft 428 kts 249°
2026-04-28 15:19 40.05422 53.04127 38071 ft 430 kts 254°
2026-04-28 15:20 40.04280 52.96523 38045 ft 422 kts 259°
2026-04-28 15:20 40.03938 52.92823 37756 ft 414 kts 262°
2026-04-28 15:20 40.03731 52.89104 37102 ft 413 kts 264°
2026-04-28 15:20 40.03618 52.85366 36382 ft 414 kts 265°
2026-04-28 15:21 40.03514 52.81614 36086 ft 417 kts 265°
2026-04-28 15:21 40.03305 52.74019 36074 ft 420 kts 265°
2026-04-28 15:22 40.03090 52.66343 36074 ft 419 kts 265°
2026-04-28 15:22 40.02872 52.58779 36077 ft 420 kts 265°
2026-04-28 15:23 40.02648 52.51166 36078 ft 420 kts 265°
2026-04-28 15:23 40.02418 52.43509 36082 ft 420 kts 265°
2026-04-28 15:24 40.02186 52.35932 36092 ft 420 kts 265°
2026-04-28 15:24 40.01947 52.28334 36066 ft 419 kts 265°
2026-04-28 15:24 40.01826 52.24537 35825 ft 419 kts 265°
2026-04-28 15:25 40.01701 52.20726 35472 ft 417 kts 265°
2026-04-28 15:25 40.01579 52.16985 34999 ft 415 kts 265°
2026-04-28 15:25 40.01455 52.13240 34434 ft 416 kts 265°
2026-04-28 15:25 40.01329 52.09493 33719 ft 418 kts 265°
2026-04-28 15:26 40.01203 52.05734 33011 ft 418 kts 265°
2026-04-28 15:26 40.01076 52.01982 32330 ft 417 kts 266°
2026-04-28 15:26 40.00947 51.98186 31620 ft 417 kts 266°
2026-04-28 15:26 40.00819 51.94475 30996 ft 415 kts 266°
2026-04-28 15:27 40.00690 51.90736 30573 ft 411 kts 266°
2026-04-28 15:27 40.00560 51.87013 30120 ft 408 kts 266°
2026-04-28 15:27 40.00431 51.83391 29669 ft 405 kts 266°
2026-04-28 15:27 40.00300 51.79725 29216 ft 402 kts 265°
2026-04-28 15:28 40.00170 51.76103 28761 ft 398 kts 265°
2026-04-28 15:28 40.00039 51.72528 28298 ft 395 kts 265°
2026-04-28 15:28 39.99907 51.68981 27847 ft 392 kts 265°
2026-04-28 15:28 39.99777 51.65491 27400 ft 389 kts 265°
2026-04-28 15:29 39.99645 51.61975 26941 ft 385 kts 265°
2026-04-28 15:29 39.99513 51.58498 26476 ft 382 kts 265°
2026-04-28 15:29 39.99384 51.55103 26006 ft 379 kts 265°
2026-04-28 15:29 39.99433 51.51681 25525 ft 379 kts 274°
2026-04-28 15:30 39.99925 51.48301 25041 ft 379 kts 282°
2026-04-28 15:30 40.00811 51.45094 24574 ft 379 kts 289°
2026-04-28 15:30 40.01858 51.41955 24103 ft 378 kts 290°
2026-04-28 15:30 40.02928 51.38818 23623 ft 375 kts 290°
2026-04-28 15:31 40.03981 51.35733 23156 ft 373 kts 290°
2026-04-28 15:31 40.05027 51.32650 22690 ft 372 kts 290°
2026-04-28 15:31 40.06058 51.29601 22232 ft 370 kts 290°
2026-04-28 15:31 40.07091 51.26541 21779 ft 368 kts 290°
2026-04-28 15:32 40.08115 51.23495 21319 ft 366 kts 290°
2026-04-28 15:32 40.09102 51.20454 20837 ft 363 kts 285°
2026-04-28 15:32 40.09445 51.17258 20405 ft 353 kts 266°
2026-04-28 15:32 40.09317 51.14133 20046 ft 348 kts 264°
2026-04-28 15:33 40.09152 51.10991 19687 ft 344 kts 264°
2026-04-28 15:33 40.09007 51.07910 19348 ft 340 kts 264°
2026-04-28 15:33 40.08879 51.04844 19014 ft 341 kts 264°
2026-04-28 15:33 40.08764 51.01767 18675 ft 340 kts 265°
2026-04-28 15:34 40.08657 50.98682 18333 ft 340 kts 265°
2026-04-28 15:34 40.08556 50.95584 17988 ft 339 kts 265°
2026-04-28 15:34 40.08698 50.92532 17507 ft 343 kts 279°
2026-04-28 15:34 40.09413 50.89539 16784 ft 352 kts 287°
2026-04-28 15:35 40.10260 50.86542 15896 ft 362 kts 288°
2026-04-28 15:35 40.11999 50.80245 14133 ft 377 kts 287°
2026-04-28 15:35 40.12861 50.76995 13493 ft 376 kts 287°
2026-04-28 15:36 40.13697 50.73785 12665 ft 382 kts 287°
2026-04-28 15:36 40.14546 50.70478 11865 ft 388 kts 287°
2026-04-28 15:36 40.15390 50.67167 11361 ft 387 kts 287°
2026-04-28 15:36 40.16244 50.63806 10982 ft 382 kts 287°
2026-04-28 15:37 40.17051 50.60623 10484 ft 360 kts 287°
2026-04-28 15:37 40.17807 50.57627 9992 ft 339 kts 287°
2026-04-28 15:37 40.18523 50.54773 9493 ft 321 kts 287°
2026-04-28 15:37 40.19199 50.52073 8998 ft 306 kts 288°
2026-04-28 15:38 40.19841 50.49507 8502 ft 293 kts 288°
2026-04-28 15:38 40.20458 50.47034 8001 ft 282 kts 288°
2026-04-28 15:38 40.21056 50.44633 7434 ft 275 kts 289°
2026-04-28 15:38 40.21637 50.42300 6761 ft 272 kts 289°
2026-04-28 15:39 40.22218 50.39968 6094 ft 269 kts 290°
2026-04-28 15:39 40.22794 50.37653 5470 ft 270 kts 290°
2026-04-28 15:39 40.23371 50.35338 5088 ft 267 kts 290°
2026-04-28 15:39 40.23943 50.33044 4725 ft 265 kts 290°
2026-04-28 15:40 40.24512 50.30757 4349 ft 263 kts 291°
2026-04-28 15:40 40.25080 50.28468 3974 ft 262 kts 291°
2026-04-28 15:40 40.25638 50.26223 3614 ft 260 kts 291°
2026-04-28 15:40 40.26189 50.23997 3370 ft 254 kts 292°
2026-04-28 15:41 40.26717 50.21857 3339 ft 240 kts 292°
2026-04-28 15:41 40.27213 50.19844 3314 ft 226 kts 292°
2026-04-28 15:41 40.27696 50.17899 3286 ft 226 kts 292°
2026-04-28 15:41 40.28177 50.15958 3132 ft 221 kts 293°
2026-04-28 15:42 40.28644 50.14063 2987 ft 212 kts 293°
2026-04-28 15:42 40.29086 50.12265 2858 ft 205 kts 295°
2026-04-28 15:42 40.29636 50.10586 2725 ft 199 kts 309°
2026-04-28 15:42 40.30488 50.09203 2599 ft 191 kts 319°
2026-04-28 15:43 40.31399 50.07986 2518 ft 178 kts 321°
2026-04-28 15:43 40.32313 50.07010 2489 ft 166 kts 341°
2026-04-28 15:43 40.33412 50.06630 2470 ft 157 kts 355°
2026-04-28 15:43 40.34453 50.06520 2269 ft 143 kts 359°
2026-04-28 15:44 40.35412 50.06484 2057 ft 137 kts
2026-04-28 15:44 40.36363 50.06466 1863 ft 135 kts
2026-04-28 15:44 40.37292 50.06453 1672 ft 134 kts
2026-04-28 15:44 40.38232 50.06439 1496 ft 135 kts
2026-04-28 15:45 40.39178 50.06426 1316 ft 136 kts 360°
2026-04-28 15:45 40.40124 50.06419 1149 ft 136 kts 359°
2026-04-28 15:45 40.41067 50.06387 1045 ft 132 kts 359°
2026-04-28 15:45 40.41982 50.06378 812 ft 129 kts 359°
2026-04-28 15:46 40.42872 50.06363 604 ft 128 kts 358°
2026-04-28 15:46 40.43760 50.06353 466 ft 128 kts 358°
2026-04-28 15:46 40.44647 50.06338 280 ft 127 kts 358°
2026-04-28 15:46 40.45524 50.06329 97 ft 125 kts 357°
2026-04-28 15:47 40.46381 50.06311 16 ft 115 kts 358°
2026-04-28 15:47 40.47033 50.06302 15 ft 68 kts 359°
2026-04-28 15:47 40.47322 50.06296 15 ft 16 kts 356°
2026-04-28 15:47 40.47353 50.06289 15 ft 7 kts 345°
2026-04-28 15:48 40.47452 50.06248 15 ft 19 kts 338°
2026-04-28 15:48 40.47562 50.06165 15 ft 16 kts 327°
2026-04-28 15:48 40.47580 50.06103 15 ft 0 kts 251°
2026-04-28 15:48 40.47576 50.06094 15 ft 4 kts 231°
2026-04-28 15:49 40.47506 50.06079 15 ft 16 kts 178°
2026-04-28 15:49 40.47382 50.06080 15 ft 18 kts 180°
2026-04-28 15:49 40.47254 50.06083 15 ft 18 kts 179°
2026-04-28 15:49 40.47126 50.06083 15 ft 18 kts 179°
2026-04-28 15:50 40.46998 50.06084 15 ft 18 kts 179°
2026-04-28 15:50 40.46955 50.06085 15 ft 0 kts 179°
2026-04-28 15:50 40.46899 50.06086 15 ft 12 kts 179°
2026-04-28 15:50 40.46806 50.06088 15 ft 13 kts 182°
2026-04-28 15:51 40.46782 50.06044 15 ft 2 kts 267°
2026-04-28 15:51 40.46778 50.05987 15 ft 14 kts 267°
2026-04-28 15:51 40.46777 50.05840 15 ft 15 kts 269°
2026-04-28 15:51 40.46775 50.05696 15 ft 15 kts 269°
2026-04-28 15:52 40.46773 50.05556 15 ft 13 kts 269°
2026-04-28 15:52 40.46776 50.05439 15 ft 9 kts 283°
2026-04-28 15:52 40.46790 50.05384 15 ft 5 kts 275°
2026-04-28 15:52 40.46773 50.05340 15 ft 6 kts 226°
2026-04-28 15:53 40.46756 50.05317 15 ft 1 kts 225°
2026-04-28 15:53 40.46754 50.05314 15 ft 0 kts 226°